This demonstration page uses our WeatherBlox Daily Observations layout. Learn more.

39.01783, -85.05884

Hourly Observations for August 13, 2020

Temp ( °F °C ) Dew Point ( °F °C ) Humidity (%) Winds ( mph kmh ) Pressure ( in mb ) Visibility ( mi km ) Precip ( " mm )
12:52 am 00:52 Mostly Cloudy 75 23.9 66 18.9 74 74 N 7 11 30.03 1017 10 16.0934 0 0
1:52 am 01:52 Mostly Cloudy 76 24.4 66 18.9 72 72 NNE 6 9 30.03 1017 10 16.0934 0 0
2:52 am 02:52 Mostly Cloudy 75 23.9 66 18.9 74 74 ENE 7 11 30.03 1017 10 16.0934 0 0
3:52 am 03:52 Mostly Cloudy 74 23.3 66 18.9 76 76 NE 6 9 30.03 1017 10 16.0934 0 0
4:52 am 04:52 Mostly Cloudy 73 22.8 66 18.9 79 79 NNE 6 9 30.02 1017 10 16.0934 0 0
5:52 am 05:52 Mostly Cloudy 72 22.2 65 18.3 79 79 NNE 6 9 30.02 1017 10 16.0934 0 0
6:52 am 06:52 Mostly Cloudy 72 22.2 65 18.3 79 79 ENE 7 11 30.04 1017 10 16.0934 0 0
7:52 am 07:52 Mostly Cloudy 73 22.8 66 18.9 79 79 N 5 7 30.04 1017 10 16.0934 0 0
8:52 am 08:52 Mostly Cloudy 75 23.9 65 18.3 71 71 ENE 7 11 30.04 1017 10 16.0934 0 0
9:52 am 09:52 Mostly Cloudy 79 26.1 67 19.4 67 67 E 3 6 30.05 1018 10 16.0934 0 0
10:52 am 10:52 Mostly Cloudy 82 27.8 68 20 63 63 NNE 5 7 30.05 1018 10 16.0934 0 0
11:52 am 11:52 Mostly Cloudy 83 28.3 66 18.9 57 57 ENE 8 13 30.04 1017 10 16.0934 0 0
12:52 pm 12:52 Cloudy 85 29.4 66 18.9 53 53 NE 3 6 30.05 1018 10 16.0934 0 0
1:52 pm 13:52 Mostly Cloudy 86 30 67 19.4 53 53 NE 7 11 30.03 1017 10 16.0934 0 0
2:52 pm 14:52 Mostly Cloudy 89 31.7 67 19.4 48 48 NE 9 15 30 1016 10 16.0934 0 0
3:52 pm 15:52 Mostly Cloudy 89 31.7 67 19.4 48 48 N 8 13 29.97 1015 10 16.0934 0 0
4:52 pm 16:52 Mostly Cloudy 87 30.6 65 18.3 48 48 NNE 6 9 29.96 1015 10 16.0934 0 0
5:52 pm 17:52 Mostly Cloudy 86 30 66 18.9 51 51 ENE 6 9 29.95 1014 10 16.0934 0 0
6:52 pm 18:52 Mostly Cloudy 86 30 66 18.9 51 51 N 8 13 29.96 1014 10 16.0934 0 0
7:52 pm 19:52 Cloudy 84 28.9 66 18.9 55 55 E 6 9 29.96 1015 10 16.0934 0 0
8:52 pm 20:52 Mostly Cloudy 83 28.3 66 18.9 57 57 Calm 29.97 1015 10 16.0934 0 0
9:52 pm 21:52 Mostly Cloudy 82 27.8 65 18.3 56 56 NE 7 11 29.98 1015 10 16.0934 0 0
10:52 pm 22:52 Cloudy 80 26.7 65 18.3 60 60 N 8 13 29.98 1015 10 16.0934 0 0
11:52 pm 23:52 Cloudy 80 26.7 65 18.3 60 60 NNE 9 15 29.98 1015 10 16.0934 0 0

Powered by AerisWeather